Regional Weather Roundup
Issued by NWS

Home | Current Version | Previous Version | Text Only | Print | Product List | Glossary On
Versions: 1 2 3 4 5 6 7 8 9 10 11 12 13 14 15 16 17 18 19 20 21 22 23 24 25 26 27 28 29 30 31 32 33 34 35 36 37 38 39 40 41 42 43 44 45 46 47 48 49 50
000
ASUS43 KMKX 251511
RWRWI

WISCONSIN REGIONAL WEATHER ROUNDUP
NATIONAL WEATHER SERVICE MILWAUKEE/SULLIVAN WI
1000 AM CDT SAT MAR 25 2017

NOTE: "FAIR" INDICATES FEW OR NO CLOUDS BELOW 12,000 FEET WITH NO
SIGNIFICANT WEATHER AND/OR OBSTRUCTIONS TO VISIBILITY.

WIZ001-002-006>008-014>016-023>028-251600-
NORTHWEST WISCONSIN

CITY           SKY/WX    TMP DP  RH WIND       PRES   REMARKS
SUPERIOR ARPT  CLOUDY    34  31  87 E16       30.29S WCI  24
ASHLAND        CLOUDY    35  30  82 NE14      30.29S WCI  26
HAYWARD        CLOUDY    37  28  70 E10G18    30.23R WCI  30
SIREN          CLOUDY    36  30  80 NE7       30.22S WCI  30
CUMBERLAND     CLOUDY    34  30  86 E13       30.21R WCI  25
RICE LAKE      CLOUDY    36  31  83 E14G22    30.22S WCI  27
CHETEK         CLOUDY    35  31  85 E12G18    30.21S WCI  27
LADYSMITH      CLOUDY    36  31  83 E9        30.23S WCI  29
EAU CLAIRE     CLOUDY    37  31  78 E16G24    30.19S WCI  28
MENOMONIE      CLOUDY    37  32  82 NE13      30.20S WCI  29
NEW RICHMOND   CLOUDY    36  30  80 E12G17    30.19F WCI  28
OSCEOLA        CLOUDY    37  31  79 E14       30.24R WCI  28
$$

WIZ003>005-009-010-017-018-251600-
NORTH CENTRAL WISCONSIN

CITY           SKY/WX    TMP DP  RH WIND       PRES   REMARKS
MANITOWISH WTR CLOUDY    32  32 100 E7        30.24R FOG     WCI  26
ARBOR VITAE    CLOUDY    35  32  86 E8        30.23R WCI  29
WOODRUFF       CLOUDY    35  32  86 E8        30.23R WCI  29
RHINELANDER    CLOUDY    34  30  85 E14       30.24R WCI  25
EAGLE RIVER    CLOUDY    33  30  91 E9        30.24R WCI  25
LAND O LAKES   CLOUDY    33  31  94 E7        30.27R WCI  26
PHILLIPS       CLOUDY    33  30  86 E14G21    30.22S WCI  24
TOMAHAWK       CLOUDY    33  28  82 E12G20    30.23F WCI  25
MEDFORD        CLOUDY    33  30  88 E18G24    30.19S WCI  22
MERRILL        CLOUDY    34  31  87 E9G20     30.22S WCI  27
$$

WIZ029-030-035-036-043>047-251600-
CENTRAL WISCONSIN

CITY           SKY/WX    TMP DP  RH WIND       PRES   REMARKS
WAUSAU         CLOUDY    35  31  85 E14G22    30.20S WCI  26
MOSINEE        CLOUDY    34  34 100 NE17G32   30.20F WCI  23
MARSHFIELD     CLOUDY    35  31  85 E15G23    30.18R WCI  25
STEVENS POINT  CLOUDY    34  32  92 NE14G21   30.20R WCI  25
WAUPACA        CLOUDY    38  34  86 NE12      30.21S WCI  30
WAUTOMA        CLOUDY    36  34  92 NE16G28   30.18F WCI  26
WISC RAPIDS    CLOUDY    37  34  89 E17G25    30.19R WCI  27
CAMP DOUGLAS   CLOUDY    37  34  87 E14       30.14F WCI  29
$$

WIZ011>013-019>022-031-037>040-048>050-251600-
NORTHEAST WISCONSIN

CITY           SKY/WX    TMP DP  RH WIND       PRES   REMARKS
ANTIGO         CLOUDY    32  31  95 E13G20    30.22S WCI  23
SHAWANO        CLOUDY    37  33  84 E18       30.25S WCI  27
OCONTO         CLOUDY    35  32  88 NE10G20   30.27S WCI  27
STURGEON BAY   CLOUDY    36  32  85 NE14G22   30.27S WCI  27
GREEN BAY      CLOUDY    37  36  96 NE16      30.24R WCI  28
MANITOWOC      CLOUDY    37  34  89 NE14G20   30.21F WCI  28
APPLETON       CLOUDY    36  36 100 NE16G23   30.19S FOG     WCI  26
CLINTONVILLE   CLOUDY    36  32  87 NE16G25   30.23S WCI  26
OSHKOSH        CLOUDY    37  34  89 NE15G23   30.17F WCI  28
$$

WIZ032>034-041-042-053>061-251600-
SOUTHWEST WISCONSIN

CITY           SKY/WX    TMP DP  RH WIND       PRES   REMARKS
LA CROSSE      CLOUDY    39  34  82 NE14G20   30.13S WCI  31
SPARTA         CLOUDY    37  34  90 NE18G25   30.14F WCI  26
VIROQUA        CLOUDY    35  35  98 E20G25    30.07F WCI  25
BOSCOBEL       CLOUDY    39  35  86 E10       30.09S WCI  32
PRAIRIE DU CHI CLOUDY    38  35  88 NE10G17   30.07R WCI  31
PLATTEVILLE    CLOUDY    38  38 100 NE20G29   30.02F WCI  27
$$

WIZ056-057-062-063-064-067-068-251600-
SOUTH CENTRAL WISCONSIN

CITY           SKY/WX    TMP DP  RH WIND       PRES   REMARKS
REEDSBURG      CLOUDY    35  35 100 NE16G23   30.12F FOG     WCI  25
BARABOO/DELLS  CLOUDY    35  34  96 NE15G22   30.12F FOG     WCI  25
LONE ROCK      CLOUDY    38  35  89 E13       30.10S FOG     WCI  30
MINERAL POINT  LGT RAIN  37  37 100 NE18G26   30.04F WCI  27
MADISON        CLOUDY    37  35  92 NE18      30.10S WCI  27
MIDDLETON      CLOUDY    38  37  97 NE14G23   30.10S WCI  30
WATERTOWN      CLOUDY    37  37 100 E15       30.11S WCI  28
MONROE         CLOUDY    37  36  93 NE24G31   30.03S FOG     WCI  26
JANESVILLE     CLOUDY    39  39 100 NE18G24   30.06F WCI  30
$$

WIZ051-052-058>065-066-070>072-251600-
SOUTHEAST WISCONSIN

CITY           SKY/WX    TMP DP  RH WIND       PRES   REMARKS
MILWAUKEE      LGT RAIN  39  36  89 NE15      30.13S WCI  31
WAUKESHA       CLOUDY    36  36 100 E16G25    30.13F FOG     WCI  26
MILWAUKEE/TIMM CLOUDY    37  34  87 NE14G23   30.15F WCI  29
RACINE         LGT RAIN  39  36  89 NE18G25   30.13F WCI  30
KENOSHA        CLOUDY    39  37  92 NE22G28   30.10S WCI  29
FOND DU LAC    CLOUDY    38  33  82 E16G24    30.17F WCI  29
SHEBOYGAN      CLOUDY    37  34  89 NE20      30.18F WCI  27
WEST BEND      CLOUDY    36  36 100 NE14G22   30.15S FOG     WCI  27
JUNEAU         CLOUDY    36  35  96 NE14G21   30.14F WCI  27
$$

LSZ147-162-251600-
LAKE SUPERIOR

STATION/POSITION TIME  TEMP    WIND        PRES    WAVE
                       AIR SEA DIR/SP/G            HT/PER
                 (UTC) (F)     (DEG/KT/KT) (MB)    (FT/S)
DEVILS ISLAND    1500   33      70/ 20/ 23 1027.6F
PORT WING        1440   35      60/ 10/ 14 1026.1S
SAXON HARBOR     1440   34      50/ 12/ 15 1025.4F
$$

LMZ867-665-643>646-251600-
LAKE MICHIGAN

STATION/POSITION TIME  TEMP    WIND        PRES    WAVE
                       AIR SEA DIR/SP/G            HT/PER
                 (UTC) (F)     (DEG/KT/KT) (MB)    (FT/S)
CHAMBERS ISLAND  1440   35      50/ 12/ 17 1025.4R
NORTHPORT PIER   1440   35      70/ 15/ 19 1026.1R
SISTER BAY       1350   36     100/ 13/ 22   N/A
KEWAUNEE LAKESHO 1448   37      60/ 12/ 18 1023.6R
SHEBOYGAN LAKESH 1500   37      30/ 18/ 20 1022.7F
PORT WASHINGTON  1430   37      30/ 13/ 19 1022.4F
MILWAUKEE LAKESH 1450   37      30/ 16/ 17   N/A
KENOSHA   LAKESH 1500   38      30/ 18/ 20 1019.3
$$

TC  - TEMPERATURE IN CELSIUS
VSB - VISIBILITY IN STATUTE MILES
WCI - WIND CHILL INDEX
HX  - HEAT INDEX




USA.gov is the U.S. government's official web portal to all federal, state and local government web resources and services.